Weather History for Mather AFB, CA

Change the Weather History Date:

Friday, January 25, 2013

  Actual Average Record
Temperature  
Mean Temperature 57 °F -  
Max Temperature 64 °F 52 °F 71 °F (2014)
Min Temperature 48 °F 38 °F 32 °F (2002)
Degree Days  
Heating Degree Days 8    
Growing Degree Days 7 (Base 50)    
Moisture  
Dew Point 51 °F    
Average Humidity 92    
Maximum Humidity 100    
Minimum Humidity 64    
Precipitation  
Precipitation 0.00 in - - ()
Sea Level Pressure  
Sea Level Pressure 30.17 in    
Wind  
Wind Speed 2 mph (West)    
Max Wind Speed 7 mph    
Max Gust Speed -    
Visibility 5 miles    
Events Fog , Rain    
Averages and records for this station are not official NWS values.
T = Trace of Precipitation, MM = Missing Value Source: NWS Daily Summary

Daily Weather History Graph

Daily Weather History Graph

Search for Another Location

Airport:

Trip Planner

Search our weather history database for the weather conditions in past years. The results will help you decide how hot, cold, wet, or windy it might be!

Date:

Astronomy

Jan. 25, 2013 Rise Set
Actual Time 7:15 AM PST 5:19 PM PST
Civil Twilight 6:47 AM PST 5:48 PM PST
Nautical Twilight 6:15 AM PST 6:20 PM PST
Astronomical Twilight 5:44 AM PST 6:51 PM PST
Moon 4:21 PM PST (1/25) 5:59 AM PST (1/25)
Length of Visible Light 11h 00m
Length of Day
10h 03m
Waxing Gibbous, 98% of the Moon is Illuminated
Jan 25
Waxing Gibbous
Jan 26
Full
Feb 3
Last Quarter
Feb 9
New
Feb 17
First Quarter

Hourly Weather History & Observations

Time (PST) Temp. Dew Point Humidity Pressure Visibility Wind Dir Wind Speed Gust Speed Precip Events Conditions
12:46 AM 50.0 °F 50.0 °F 100% 30.20 in 3.0 mi Calm Calm - N/A   Overcast
1:46 AM 50.0 °F 50.0 °F 100% 30.20 in 3.0 mi Calm Calm - N/A   Overcast
2:46 AM 50.0 °F 50.0 °F 100% 30.20 in 2.0 mi Calm Calm - N/A   Overcast
3:46 AM 50.0 °F 50.0 °F 100% 30.18 in 2.0 mi Calm Calm - N/A Rain Light Rain
4:46 AM 50.0 °F 50.0 °F 100% 30.17 in 1.5 mi Calm Calm - N/A Rain Light Rain
5:14 AM 50.0 °F 50.0 °F 100% 30.18 in 0.8 mi WNW 4.6 mph - N/A   Overcast
5:46 AM 50.0 °F 50.0 °F 100% 30.19 in 0.5 mi NNW 6.9 mph - N/A Fog Fog
6:47 AM 50.0 °F 50.0 °F 100% 30.19 in 0.5 mi Calm Calm - N/A Fog Fog
7:45 AM 50.0 °F 50.0 °F 100% 30.18 in 0.8 mi ENE 3.5 mph - N/A Fog Fog
8:02 AM 50.0 °F 50.0 °F 100% 30.18 in 2.0 mi Calm Calm - N/A   Mostly Cloudy
8:31 AM 51.8 °F 51.8 °F 100% 30.17 in 3.0 mi Calm Calm - N/A   Mostly Cloudy
8:50 AM 51.8 °F 51.8 °F 100% 30.17 in 3.0 mi Calm Calm - N/A   Mostly Cloudy
9:54 AM 55.4 °F 53.6 °F 94% 30.18 in 4.0 mi WSW 5.8 mph - N/A   Mostly Cloudy
10:45 AM 57.2 °F 53.6 °F 88% 30.17 in 5.0 mi West 5.8 mph - N/A   Scattered Clouds
11:45 AM 59.0 °F 53.6 °F 82% 30.15 in 8.0 mi West 5.8 mph - N/A   Mostly Cloudy
12:45 PM 59.0 °F 50.0 °F 72% 30.12 in 10.0 mi NW 5.8 mph - N/A   Mostly Cloudy
1:45 PM 57.2 °F 51.8 °F 82% 30.99 in 10.0 mi Calm Calm - N/A   Scattered Clouds
2:45 PM 64.4 °F 51.8 °F 64% 30.08 in 10.0 mi WSW 5.8 mph - N/A   Scattered Clouds
4:45 PM 62.6 °F 51.8 °F 68% 30.06 in 10.0 mi Calm Calm - N/A   Scattered Clouds
5:45 PM 59.0 °F 50.0 °F 72% 30.06 in 10.0 mi Calm Calm - N/A   Scattered Clouds
6:50 PM 55.4 °F 50.0 °F 82% 30.05 in 10.0 mi Calm Calm - N/A   Scattered Clouds
9:45 PM 51.8 °F 51.8 °F 100% 30.05 in 10.0 mi SSW 4.6 mph - N/A   Scattered Clouds
9:55 PM 53.6 °F 53.6 °F 100% 30.05 in 10.0 mi SW 5.8 mph - N/A   Scattered Clouds
10:45 PM 50.0 °F 50.0 °F 100% 30.06 in 7.0 mi South 3.5 mph - N/A   Mostly Cloudy
11:45 PM 48.2 °F 48.2 °F 100% 30.05 in 3.0 mi East 5.8 mph - N/A   Overcast